| time (UTC) | temp F | wind direction | speed MPH | gust MPH | rain 1hr in | rain 24hr in | rain mn in | humidity % | barometer mb |
| 20260507173057 | 67 | 73 | 1.0 | 3.0 | 0.00 | 0.00 | 0.00 | 44 | |
| 20260507171601 | 65 | 46 | 1.0 | 3.0 | 0.00 | 0.00 | 0.00 | 44 | |
| 20260507170051 | 64 | 220 | 1.0 | 4.0 | 0.00 | 0.00 | 0.00 | 45 | |
| 20260507164549 | 64 | 343 | 0.0 | 3.0 | 0.00 | 0.00 | 0.00 | 48 | |
| 20260507163045 | 63 | 33 | 1.0 | 3.0 | 0.00 | 0.00 | 0.00 | 49 | |
| 20260507161551 | 62 | 277 | 0.0 | 3.0 | 0.00 | 0.00 | 0.00 | 52 | |
| 20260507160043 | 62 | 277 | 1.0 | 4.0 | 0.00 | 0.00 | 0.00 | 53 | |
| 20260507154545 | 61 | 44 | 0.0 | 3.0 | 0.00 | 0.00 | 0.00 | 55 | |
| 20260507153102 | 60 | 44 | 0.0 | 3.0 | 0.00 | 0.11 | 0.00 | 56 | |
| 20260507151553 | 59 | 286 | 0.0 | 2.0 | 0.00 | 0.11 | 0.00 | 59 | |
| 20260507150051 | 58 | 349 | 1.0 | 3.0 | 0.00 | 0.11 | 0.00 | 60 | |
| 20260507144548 | 57 | 27 | 0.0 | 3.0 | 0.00 | 0.11 | 0.00 | 63 | |
| 20260507143054 | 57 | 36 | 0.0 | 2.0 | 0.00 | 0.11 | 0.00 | 64 | |
| 20260507141553 | 56 | 6 | 0.0 | 0.0 | 0.00 | 0.11 | 0.00 | 65 | |
| 20260507140059 | 55 | 10 | 0.0 | 0.0 | 0.00 | 0.11 | 0.00 | 66 | |
| 20260507134504 | 55 | 10 | 0.0 | 0.0 | 0.00 | 0.11 | 0.00 | 65 | |
| 20260507133007 | 54 | 10 | 0.0 | 0.0 | 0.00 | 0.11 | 0.00 | 65 | |
| 20260507131520 | 53 | 10 | 0.0 | 0.0 | 0.00 | 0.11 | 0.00 | 65 | |
| 20260507130003 | 53 | 11 | 0.0 | 0.0 | 0.00 | 0.11 | 0.00 | 65 | |
| 20260507124504 | 53 | 11 | 0.0 | 0.0 | 0.00 | 0.11 | 0.00 | 65 | |
| 20260507123005 | 52 | 12 | 0.0 | 0.0 | 0.00 | 0.11 | 0.00 | 64 | |
| 20260507121506 | 52 | 12 | 0.0 | 0.0 | 0.00 | 0.11 | 0.00 | 64 | |
| 20260507120006 | 52 | 12 | 0.0 | 0.0 | 0.00 | 0.11 | 0.00 | 64 | |
| 20260507114509 | 53 | 12 | 0.0 | 0.0 | 0.00 | 0.11 | 0.00 | 64 | |
| 20260507113007 | 53 | 12 | 0.0 | 2.0 | 0.00 | 0.11 | 0.00 | 64 | |
| 20260507111510 | 53 | 43 | 0.0 | 2.0 | 0.00 | 0.11 | 0.00 | 63 | |
| 20260507110009 | 53 | 42 | 0.0 | 0.0 | 0.00 | 0.11 | 0.00 | 63 | |
| 20260507104517 | 53 | 42 | 0.0 | 1.0 | 0.00 | 0.11 | 0.00 | 63 | |
| 20260507103015 | 54 | 43 | 0.0 | 0.0 | 0.00 | 0.11 | 0.00 | 62 | |
| 20260507101513 | 54 | 43 | 0.0 | 0.0 | 0.00 | 0.11 | 0.00 | 62 | |
| 20260507100021 | 54 | 43 | 0.0 | 0.0 | 0.00 | 0.11 | 0.00 | 62 | |
| 20260507094519 | 54 | 43 | 0.0 | 0.0 | 0.00 | 0.11 | 0.00 | 62 | |
| 20260507093025 | 55 | 43 | 0.0 | 0.0 | 0.00 | 0.11 | 0.00 | 62 | |
| 20260507091525 | 55 | 42 | 0.0 | 0.0 | 0.00 | 0.11 | 0.00 | 62 | |
| 20260507090023 | 55 | 42 | 0.0 | 1.0 | 0.00 | 0.11 | 0.00 | 61 | |
| 20260507084522 | 55 | 42 | 0.0 | 0.0 | 0.00 | 0.11 | 0.00 | 61 | |
| 20260507083022 | 56 | 42 | 0.0 | 0.0 | 0.00 | 0.11 | 0.00 | 61 | |
| 20260507081525 | 56 | 42 | 0.0 | 1.0 | 0.00 | 0.11 | 0.00 | 61 | |
| 20260507080028 | 56 | 42 | 0.0 | 0.0 | 0.00 | 0.11 | 0.00 | 60 | |
| 20260507074530 | 57 | 42 | 0.0 | 0.0 | 0.00 | 0.11 | 0.00 | 60 | |
| 20260507073033 | 57 | 42 | 0.0 | 1.0 | 0.00 | 0.11 | 0.00 | 60 | |
| 20260507071536 | 57 | 42 | 0.0 | 0.0 | 0.00 | 0.11 | 0.00 | 60 | |
| 20260507070040 | 57 | 42 | 0.0 | 0.0 | 0.00 | 0.11 | 0.00 | 59 | |
| 20260507064544 | 57 | 42 | 0.0 | 2.0 | 0.00 | 0.11 | 0.00 | 59 | |
| 20260507063050 | 57 | 42 | 0.0 | 0.0 | 0.00 | 0.11 | 0.00 | 58 | |
| 20260507061550 | 58 | 42 | 0.0 | 0.0 | 0.00 | 0.11 | 0.00 | 57 | |
| 20260507060049 | 58 | 42 | 0.0 | 0.0 | 0.00 | 0.11 | 0.00 | 57 | |
| 20260507054544 | 58 | 42 | 0.0 | 0.0 | 0.00 | 0.11 | 0.00 | 57 | |
| 20260507053046 | 58 | 42 | 0.0 | 1.0 | 0.00 | 0.11 | 0.11 | 57 | |
| 20260507051547 | 59 | 42 | 0.0 | 2.0 | 0.00 | 0.11 | 0.11 | 57 | |
| 20260507050047 | 59 | 42 | 0.0 | 1.0 | 0.00 | 0.11 | 0.11 | 56 | |
| 20260507044551 | 59 | 42 | 0.0 | 3.0 | 0.00 | 0.11 | 0.11 | 56 | |
| 20260507043051 | 59 | 56 | 0.0 | 2.0 | 0.00 | 0.11 | 0.11 | 56 | |
| 20260507041556 | 60 | 57 | 1.0 | 3.0 | 0.00 | 0.11 | 0.11 | 56 | |
| 20260507040059 | 60 | 60 | 0.0 | 2.0 | 0.00 | 0.11 | 0.11 | 56 | |
| 20260507034558 | 60 | 63 | 0.0 | 4.0 | 0.00 | 0.11 | 0.11 | 55 | |
| 20260507033003 | 60 | 34 | 1.0 | 4.0 | 0.00 | 0.11 | 0.11 | 54 | |
| 20260507031505 | 60 | 64 | 0.0 | 4.0 | 0.00 | 0.11 | 0.11 | 54 | |
| 20260507030012 | 61 | 37 | 1.0 | 3.0 | 0.00 | 0.11 | 0.11 | 55 | |
| 20260507024515 | 61 | 2 | 1.0 | 3.0 | 0.00 | 0.11 | 0.11 | 56 | |
| 20260507023017 | 62 | 67 | 0.0 | 4.0 | 0.00 | 0.11 | 0.11 | 56 | |
| 20260507021515 | 62 | 8 | 0.0 | 3.0 | 0.00 | 0.11 | 0.11 | 56 | |
| 20260507020016 | 62 | 20 | 0.0 | 2.0 | 0.00 | 0.11 | 0.11 | 55 | |
| 20260507014519 | 62 | 9 | 0.0 | 2.0 | 0.00 | 0.11 | 0.11 | 55 | |
| 20260507013026 | 62 | 21 | 0.0 | 2.0 | 0.00 | 0.11 | 0.11 | 55 | |
| 20260507011527 | 63 | 46 | 0.0 | 3.0 | 0.00 | 0.11 | 0.11 | 55 | |
| 20260507010027 | 63 | 56 | 0.0 | 2.0 | 0.00 | 0.11 | 0.11 | 54 | |
| 20260507004539 | 63 | 58 | 0.0 | 3.0 | 0.00 | 0.11 | 0.11 | 54 | |
| 20260507003037 | 64 | 70 | 1.0 | 4.0 | 0.00 | 0.11 | 0.11 | 54 | |
| 20260507001546 | 64 | 57 | 0.0 | 4.0 | 0.00 | 0.11 | 0.11 | 53 | |
| 20260507000049 | 65 | 54 | 0.0 | 3.0 | 0.00 | 0.11 | 0.11 | 53 | |
| 20260506234559 | 65 | 48 | 1.0 | 6.0 | 0.00 | 0.11 | 0.11 | 53 | |
| 20260506233052 | 66 | 16 | 2.0 | 4.0 | 0.00 | 0.11 | 0.11 | 52 | |
| 20260506231557 | 66 | 23 | 1.0 | 5.0 | 0.00 | 0.11 | 0.11 | 52 | |
| 20260506230057 | 66 | 40 | 1.0 | 4.0 | 0.00 | 0.11 | 0.11 | 54 | |
| 20260506224554 | 65 | 355 | 0.0 | 3.0 | 0.00 | 0.11 | 0.11 | 55 | |
| 20260506223058 | 65 | 2 | 1.0 | 3.0 | 0.00 | 0.11 | 0.11 | 56 | |
| 20260506221555 | 64 | 153 | 0.0 | 3.0 | 0.00 | 0.11 | 0.11 | 57 | |
| 20260506220055 | 62 | 90 | 0.0 | 3.0 | 0.00 | 0.11 | 0.11 | 58 | |
| 20260506214552 | 62 | 23 | 0.0 | 2.0 | 0.00 | 0.11 | 0.11 | 57 | |
| 20260506213113 | 61 | 40 | 1.0 | 3.0 | 0.00 | 0.11 | 0.11 | 58 | |
| 20260506211618 | 61 | 39 | 0.0 | 4.0 | 0.00 | 0.11 | 0.11 | 58 | |
| 20260506210104 | 61 | 29 | 1.0 | 2.0 | 0.00 | 0.11 | 0.11 | 58 | |
| 20260506204601 | 60 | 352 | 0.0 | 4.0 | 0.00 | 0.11 | 0.11 | 58 | |
| 20260506203105 | 60 | 64 | 1.0 | 4.0 | 0.00 | 0.11 | 0.11 | 58 | |
| 20260506201506 | 59 | 50 | 1.0 | 3.0 | 0.00 | 0.11 | 0.11 | 59 | |
| 20260506200005 | 59 | 350 | 0.0 | 2.0 | 0.00 | 0.11 | 0.11 | 61 | |
| 20260506194506 | 58 | 350 | 1.0 | 3.0 | 0.00 | 0.11 | 0.11 | 61 | |
| 20260506193010 | 57 | 350 | 0.0 | 3.0 | 0.00 | 0.11 | 0.11 | 61 | |
| 20260506191514 | 57 | 40 | 0.0 | 3.0 | 0.00 | 0.11 | 0.11 | 62 | |
| 20260506190016 | 57 | 42 | 0.0 | 2.0 | 0.00 | 0.11 | 0.11 | 63 | |
| 20260506184519 | 56 | 6 | 0.0 | 4.0 | 0.00 | 0.11 | 0.11 | 63 | |
| 20260506183030 | 56 | 60 | 1.0 | 6.0 | 0.00 | 0.11 | 0.11 | 65 | |
| 20260506181527 | 56 | 37 | 1.0 | 4.0 | 0.00 | 0.11 | 0.11 | 66 | |
| 20260506180035 | 55 | 19 | 0.0 | 5.0 | 0.00 | 0.11 | 0.11 | 66 | |
| 20260506174539 | 55 | 66 | 1.0 | 5.0 | 0.00 | 0.11 | 0.11 | 67 |